カタリナ-リニア彗星

227P/Catalina-LINEAR (2024)

English version
Home page
Updated on December 1, 2023

---------------------------------------------------------------------

・ プロフィール

・ 写真集

・ 軌道要素

Epoch 2024 Feb. 20.0 TT = JDT 2460360.5
T 2024 Mar. 8.24699 TT                                  MPCW
q   1.6236280            (2000.0)            P               Q
n   0.15476019     Peri.  105.56716     -0.78709045     -0.61184829
a   3.4358159      Node    36.80938     +0.50395307     -0.71104193
e   0.5274404      Incl.    7.50876     +0.35569640     -0.34649826
P   6.37
From 144 observations 1997 Jan. 15-2016 Dec. 18, mean residual 0".5.

・ 星図

・ 光度変化

        m1 = 15.0 + 5 logΔ + 10.0 log r

---------------------------------------------------------------------

軌道要素はM.P.E.C. 2017-A77に掲載されたものです。
星図はステラナビゲータ Ver.11 (アストロアーツ) で作成したものです。
光度グラフはComet for Windowsで作成したものです。

---------------------------------------------------------------------

Copyright(C) Seiichi Yoshida (comet@aerith.net). All rights reserved.